Location: Heppenheim
(49.6410°N, 8.6370°E)
Time: 15:58:01
(UTC+02:00)

ISS - Pass Details

Date: 11 May 2026
Orbit: 414 x 424 km, 51.6° (Epoch: 10 May)

Event Time Altitude Azimuth Distance (km) Brightness Sun altitude
Rises 01:42:30 0° 286° (WNW) 2,357 0.2 -22.4°
Reaches altitude 10° 01:44:36 10° 287° (WNW) 1,494 -0.8 -22.3°
Enters shadow 01:45:06 14° 288° (WNW) 1,288 -1.2 -22.3°
